Regional Weather Roundup
Issued by NWS

Home | Current Version | Previous Version | Graphics & Text | Print | Product List | Glossary On
Versions: 1 2 3 4 5 6 7 8 9 10 11 12 13 14 15 16 17 18 19 20 21 22 23 24 25 26 27 28 29 30 31 32 33 34 35 36 37 38 39 40 41 42 43 44 45 46 47 48 49 50
000
ASUS43 KMKX 230821
RWRWI

WISCONSIN REGIONAL WEATHER ROUNDUP
NATIONAL WEATHER SERVICE MILWAUKEE/SULLIVAN WI
300 AM CDT SAT AUG 23 2014

NOTE: "FAIR" INDICATES FEW OR NO CLOUDS BELOW 12,000 FEET WITH NO
SIGNIFICANT WEATHER AND/OR OBSTRUCTIONS TO VISIBILITY.

WIZ001-002-006>008-014>016-023>028-230900-
NORTHWEST WISCONSIN

CITY           SKY/WX    TMP DP  RH WIND       PRES   REMARKS
SUPERIOR ARPT  CLEAR     60  59  99 CALM      30.04S
ASHLAND        CLOUDY    62  60  93 NE5       30.05F
HAYWARD        CLOUDY    65  63  93 NE3       30.04S
SIREN          CLOUDY    64  63  95 NE3       30.03S
RICE LAKE      CLOUDY    66  64  94 NE8       30.04R
LADYSMITH      FOG       66  65  96 N3        30.04F VSB 3/4
EAU CLAIRE     CLOUDY    70  69  97 N5        30.00R
MENOMONIE      PTSUNNY   70  68  93 CALM      30.01S
NEW RICHMOND   CLOUDY    69  67  96 NE3       30.02R
OSCEOLA        CLOUDY    69  69 100 NE5       30.04R
$$

WIZ003>005-009-010-017-018-230900-
NORTH CENTRAL WISCONSIN

CITY           SKY/WX    TMP DP  RH WIND       PRES   REMARKS
WOODRUFF       FOG       67  65  92 CALM      30.04F VSB 1/2
RHINELANDER    FOG       68  68 100 N3        30.04F VSB 1/2
EAGLE RIVER    DRIZZLE   68  68 100 CALM      30.03F
LAND O LAKES   CLOUDY    68  68 100 N3        30.06S FOG
PHILLIPS       CLOUDY    64  64 100 N5        30.03S FOG
TOMAHAWK       FOG       68  67  96 N3        30.04S VSB 1
MEDFORD        FOG       68  68 100 NE3       30.03R VSB 1
MERRILL        FOG       70  70 100 CALM      30.02S VSB 3/4
$$

WIZ029-030-035-036-043>047-230900-
CENTRAL WISCONSIN

CITY           SKY/WX    TMP DP  RH WIND       PRES   REMARKS
WAUSAU         CLOUDY    71  70  96 E3        30.00R FOG
MOSINEE        CLOUDY    70  70 100 E3        30.02R FOG
MARSHFIELD     CLOUDY    73  71  93 SE5       30.00R FOG
STEVENS POINT  CLOUDY    69  68  97 E6        30.01R FOG
WAUPACA        CLOUDY    72  70  95 CALM      29.99F FOG
WAUTOMA        CLOUDY    73  71  93 CALM      29.99S
WISC RAPIDS    CLOUDY    73  70  90 E6        30.00S
CAMP DOUGLAS   FOG       68  68 100 NW2       29.98R VSB 1/2
$$

WIZ011>013-019>022-031-037>040-048>050-230900-
NORTHEAST WISCONSIN

CITY           SKY/WX    TMP DP  RH WIND       PRES   REMARKS
ANTIGO         CLOUDY    68  68  99 CALM      30.04S FOG
STURGEON BAY   MOCLDY    66  64  94 SE7       30.01F
GREEN BAY      PTCLDY    67  66  97 CALM      30.00F FOG
MANITOWOC      FOG       66  66 100 N5        30.01R VSB 1
APPLETON       CLOUDY    70  68  94 E3        30.01R FOG
CLINTONVILLE   CLOUDY    70  68  94 CALM      30.00F FOG
OSHKOSH        MOCLDY    71  70  96 E3        29.99S FOG
$$

WIZ032>034-041-042-053>061-230900-
SOUTHWEST WISCONSIN

CITY           SKY/WX    TMP DP  RH WIND       PRES   REMARKS
LA CROSSE      CLOUDY    73  70  90 N7        29.96S
SPARTA         CLOUDY    68  67  97 CALM      29.98S FOG
VIROQUA        FAIR      71  71 100 CALM      30.00S
BOSCOBEL       FOG       74  72  93 CALM      29.95F VSB 3/4
PRAIRIE DU CHI MOCLDY    77  73  88 CALM      29.95S
PLATTEVILLE    FAIR      74  73  96 CALM      29.98S
$$

WIZ056-057-062-063-064-067-068-230900-
SOUTH CENTRAL WISCONSIN

CITY           SKY/WX    TMP DP  RH WIND       PRES   REMARKS
BARABOO/DELLS  CLOUDY    71  69  94 CALM      29.97S FOG
LONE ROCK      FOG       76  72  87 CALM      29.96S VSB 1
WATERTOWN      FOG       71  71 100 CALM      29.99S VSB 3/4
MADISON        MOCLDY    75  73  93 S5        29.98R FOG
MIDDLETON      PTSUNNY   76  76  99 CALM      29.98S
MONROE         FOG       72  72 100 SE3       29.98S VSB 3/4
JANESVILLE     PTCLDY    73  72  94 CALM      29.98R FOG
$$

WIZ051-052-058>065-066-070>072-230900-
SOUTHEAST WISCONSIN

CITY           SKY/WX    TMP DP  RH WIND       PRES   REMARKS
MILWAUKEE      FOG       70  68  93 CALM      30.00R VSB 1/8
WAUKESHA       FOG       68  68 100 E3        30.01R VSB 1/2
MILWAUKEE/TIMM FOG       70  66  88 CALM      30.01R VSB 1
RACINE         FOG       70  68  93 NE3       30.01R VSB 1/4
BURLINGTON     FOG       70  69  99 E5        29.99S VSB 1/4
KENOSHA        FOG       70  69  97 E5        30.00S VSB 1/4
FOND DU LAC    LGT RAIN  72  70  93 E5        29.99S FOG
SHEBOYGAN      FOG       68  67  96 NE3       30.00R VSB 1/4
WEST BEND      FOG       66  64  94 CALM      30.00R VSB 1/4
JUNEAU         HAZE      70  46  41 E6        30.00S VSB 1/2
$$

LSZ147-162-230900-
LAKE SUPERIOR

STATION/POSITION TIME  TEMP    WIND        PRES    WAVE
                       AIR SEA DIR/SP/G            HT/PER
                 (UTC) (F)     (DEG/KT/KT) (MB)    (FT/S)
W MID LAKE BUOY  0750   58 58   50/ 10/ 12 1017.1F   1/ 4
DEVILS ISLAND    0800   60      60/  9/ 10 1017.5F
PORT WING        0700   61     340/  3/  4 1017.9S
SAXON HARBOR     0700   62        CALM     1017.6
$$

LMZ867-665-643>646-230900-
LAKE MICHIGAN

STATION/POSITION TIME  TEMP    WIND        PRES    WAVE
                       AIR SEA DIR/SP/G            HT/PER
                 (UTC) (F)     (DEG/KT/KT) (MB)    (FT/S)
N MID LAKE BUOY  0750   68 65  170/  6/  8 1016.1R   0
NORTHPORT PIER   0700   67      CALM  /  2 1016.3S
SISTER BAY       0711   68        CALM       N/A
KEWAUNEE LAKESHO 0800   68      80/  4/  5 1015.1S
SHEBOYGAN LAKESH 0800   67 65   20/  3/  3 1015.9R
ATWATER BUOY     0800   69     130/  2/  2 1016.8R
MILWAUKEE LAKESH 0800   69      70/  1/  1   N/A
S MID LAKE BUOY  0750   71 69   90/ 10/ 12 1014.8F   0
KENOSHA   LAKESH 0800   70      10/  3/  3 1015.6R
$$

TC  - TEMPERATURE IN CELSIUS
VSB - VISIBILITY IN STATUTE MILES
WCI - WIND CHILL INDEX
HX  - HEAT INDEX




USA.gov is the U.S. government's official web portal to all federal, state and local government web resources and services.